This demonstration page uses our WeatherBlox Daily Observations layout. Learn more.

Hourly Observations for March 7, 2020

Temp ( °F °C ) Dew Point ( °F °C ) Humidity (%) Winds ( mph kmh ) Pressure ( in mb ) Visibility ( mi km ) Precip ( " mm )
12:15 am 00:15 Clear 42 5.6 28 -2.5 56 56 S 17 28 30.18 1022 10 16.0934 0 0
12:35 am 00:35 Clear 41 5.2 28 -2.5 58 58 S 14 22 30.19 1022 10 16.0934 0 0
12:55 am 00:55 Clear 41 5 28 -2.5 59 59 S 13 20 30.18 1022 10 16.0934 0 0
1:15 am 01:15 Clear 41 5 27 -2.6 58 58 S 12 19 30.17 1022 10 16.0934 0 0
1:35 am 01:35 Clear 41 5.2 27 -2.7 57 57 S 16 26 30.17 1022 10 16.0934 0 0
1:55 am 01:55 Clear 41 5.2 27 -2.8 57 57 S 14 22 30.16 1021 10 16.0934 0 0
2:15 am 02:15 Clear 40 4.7 27 -3 58 58 S 12 19 30.15 1021 10 16.0934 0 0
2:35 am 02:35 Clear 40 4.6 27 -3 58 58 S 10 17 30.14 1021 10 16.0934 0 0
2:55 am 02:55 Clear 40 4.7 27 -3 58 58 S 12 19 30.14 1021 10 16.0934 0 0
3:15 am 03:15 Clear 39 4 27 -3 61 61 S 9 15 30.14 1021 10 16.0934 0 0
3:35 am 03:35 Clear 40 4.2 26 -3.1 59 59 S 9 15 30.13 1020 10 16.0934 0 0
3:55 am 03:55 Clear 39 3.8 26 -3.2 61 61 S 9 15 30.13 1020 10 16.0934 0 0
4:15 am 04:15 Clear 39 3.7 26 -3.1 61 61 S 10 17 30.13 1020 10 16.0934 0 0
4:35 am 04:35 Clear 39 3.8 27 -3 62 62 S 10 17 30.12 1020 10 16.0934 0 0
4:55 am 04:55 Clear 40 4.6 27 -2.7 59 59 S 12 19 30.11 1020 10 16.0934 0 0
5:15 am 05:15 Clear 41 5.2 27 -2.6 57 57 S 14 22 30.1 1019 10 16.0934 0 0
5:35 am 05:35 Clear 42 5.5 28 -2.5 57 57 S 15 24 30.09 1019 10 16.0934 0 0
5:55 am 05:55 Clear 41 5.1 28 -2.3 59 59 S 15 24 30.1 1019 10 16.0934 0 0
6:15 am 06:15 Clear 41 5 28 -2.1 60 60 S 15 24 30.09 1019 10 16.0934 0 0
6:35 am 06:35 Clear 41 5.2 28 -2 60 60 S 17 28 30.09 1019 10 16.0934 0 0
6:55 am 06:55 Clear 42 5.3 28 -2 60 60 S 17 28 30.09 1019 10 16.0934 0 0
7:15 am 07:15 Sunny 41 5 28 -2 61 61 S 16 26 30.09 1019 10 16.0934 0 0
7:35 am 07:35 Sunny 42 5.3 29 -1.8 61 61 S 15 24 30.08 1018 10 16.0934 0 0
7:55 am 07:55 Sunny 42 5.7 29 -1.6 60 60 S 16 26 30.06 1018 10 16.0934 0 0
8:15 am 08:15 Sunny 44 6.5 30 -1.3 58 58 S 18 30 30.05 1018 10 16.0934 0 0
8:35 am 08:35 Sunny 46 7.8 31 -0.7 55 55 S 20 31 30.04 1017 10 16.0934 0 0
8:55 am 08:55 Sunny 48 9.1 31 -0.4 52 52 S 23 37 30.03 1017 10 16.0934 0 0
9:15 am 09:15 Sunny 50 10 32 0 50 50 S 24 39 30.02 1017 10 16.0934 0 0
9:35 am 09:35 Sunny 51 10.7 32 0 48 48 SSW 23 37 30.02 1016 10 16.0934 0 0
9:55 am 09:55 Sunny 52 10.9 32 0 47 47 SSW 22 35 30.01 1016 10 16.0934 0 0
10:15 am 10:15 Sunny 55 12.8 33 0.6 44 44 S 24 39 29.99 1016 10 16.0934 0 0
10:35 am 10:35 Sunny 56 13.4 33 0.7 42 42 SSW 17 28 29.98 1015 10 16.0934 0 0
10:55 am 10:55 Sunny 57 14 33 0.6 40 40 SSW 23 37 29.97 1015 10 16.0934 0 0
11:15 am 11:15 Sunny 59 15 34 0.9 39 39 S 23 37 29.96 1015 10 16.0934 0 0
11:35 am 11:35 Sunny 61 16 34 1.3 37 37 SSW 24 39 29.94 1014 10 16.0934 0 0
11:55 am 11:55 Sunny 63 17.1 35 1.5 35 35 S 25 41 29.93 1014 10 16.0934 0 0
12:15 pm 12:15 Sunny 64 17.8 35 1.5 34 34 S 20 31 29.92 1013 10 16.0934 0 0
12:35 pm 12:35 Sunny 65 18.5 34 1.3 32 32 S 21 33 29.9 1013 10 16.0934 0 0
12:55 pm 12:55 Sunny 67 19.2 34 1.1 30 30 SSW 22 35 29.88 1012 10 16.0934 0 0
1:15 pm 13:15 Sunny 67 19.3 34 1 30 30 S 23 37 29.87 1012 10 16.0934 0 0
1:35 pm 13:35 Sunny 68 20 34 1.1 28 28 SSW 22 35 29.85 1011 10 16.0934 0 0
1:55 pm 13:55 Sunny 69 20.6 33 0.8 27 27 S 21 33 29.83 1010 10 16.0934 0 0
2:15 pm 14:15 Sunny 71 21.5 33 0.4 25 25 SSW 25 41 29.82 1010 10 16.0934 0 0
2:35 pm 14:35 Sunny 72 22 33 0.7 24 24 S 25 41 29.8 1009 10 16.0934 0 0
2:55 pm 14:55 Sunny 72 22.2 33 0.5 24 24 S 23 37 29.79 1009 10 16.0934 0 0
3:15 pm 15:15 Sunny 73 22.6 33 0.3 23 23 SSW 24 39 29.79 1009 10 16.0934 0 0
3:35 pm 15:35 Sunny 73 22.6 33 0.4 23 23 SSW 28 44 29.78 1008 10 16.0934 0 0
3:55 pm 15:55 Sunny 73 23 32 0.2 22 22 S 29 46 29.77 1008 10 16.0934 0 0
4:15 pm 16:15 Sunny 73 22.8 33 0.3 23 23 S 24 39 29.76 1008 10 16.0934 0 0
4:35 pm 16:35 Sunny 73 22.5 32 0.2 23 23 SSW 26 43 29.77 1008 10 16.0934 0 0
4:55 pm 16:55 Sunny 72 22.2 32 0.1 23 23 S 24 39 29.77 1008 10 16.0934 0 0
5:15 pm 17:15 Sunny 71 21.9 32 0 23 23 S 25 41 29.77 1008 10 16.0934 0 0
5:35 pm 17:35 Sunny 70 21.2 32 0 24 24 S 22 35 29.77 1008 10 16.0934 0 0
5:55 pm 17:55 Sunny 69 20.5 32 0 25 25 S 18 30 29.78 1009 10 16.0934 0 0
6:15 pm 18:15 Sunny 68 19.8 32 0 27 27 S 17 28 29.79 1009 10 16.0934 0 0
6:35 pm 18:35 Sunny 65 18.5 32 0 29 29 S 14 22 29.8 1009 10 16.0934 0 0
6:55 pm 18:55 Clear 61 15.9 32 0 34 34 S 10 17 29.83 1010 10 16.0934 0 0
7:15 pm 19:15 Clear 59 15.1 32 -0.1 36 36 S 12 19 29.84 1010 10 16.0934 0 0
7:35 pm 19:35 Clear 59 15 31 -0.3 35 35 S 14 22 29.84 1010 10 16.0934 0 0
7:55 pm 19:55 Clear 59 14.8 31 -0.3 36 36 S 15 24 29.84 1011 10 16.0934 0 0
8:15 pm 20:15 Clear 58 14.5 31 -0.5 36 36 SSE 15 24 29.85 1011 10 16.0934 0 0
8:35 pm 20:35 Clear 58 14.2 31 -0.6 36 36 S 17 28 29.86 1011 10 16.0934 0 0
8:55 pm 20:55 Clear 57 14.1 31 -0.6 37 37 S 20 31 29.86 1011 10 16.0934 0 0
9:15 pm 21:15 Clear 56 13.5 31 -0.7 38 38 S 22 35 29.86 1011 10 16.0934 0 0
9:35 pm 21:35 Clear 56 13.1 30 -1 38 38 S 18 30 29.87 1011 10 16.0934 0 0
9:55 pm 21:55 Clear 55 12.5 31 -0.7 40 40 S 17 28 29.87 1012 10 16.0934 0 0
10:15 pm 22:15 Clear 54 12.3 31 -0.8 41 41 S 20 31 29.87 1012 10 16.0934 0 0
10:35 pm 22:35 Clear 54 12 31 -0.7 42 42 S 20 31 29.88 1012 10 16.0934 0 0
10:55 pm 22:55 Clear 53 11.4 31 -0.7 43 43 S 16 26 29.88 1012 10 16.0934 0 0
11:15 pm 23:15 Clear 52 11 31 -0.5 45 45 S 16 26 29.87 1012 10 16.0934 0 0
11:35 pm 23:35 Clear 51 10.4 31 -0.5 47 47 S 15 24 29.88 1012 10 16.0934 0 0
11:55 pm 23:55 Clear 51 10.5 31 -0.5 47 47 S 16 26 29.87 1011 10 16.0934 0 0

Powered by AerisWeather